WB5MTX Weather Reports


Display with metric or nautical units.
time (UTC)temp
F
wind
direction
speed
MPH
gust
MPH
rain 1hr
in
rain 24hr
in
rain mn
in
humidity
%
barometer
mb
20260906150105 86 0 0.0 6.0 0.00 0.00 0.00 68 1014.3
20260906144602 85 0 0.0 0.0 0.00 0.00 0.00 70 1014.2
20260906143104 84 0 0.0 3.0 0.00 0.00 0.00 71 1014.3
20260906141611 84 0 0.0 0.0 0.00 0.00 0.00 72 1014.4
20260906140108 83 0 0.0 2.0 0.00 0.00 0.00 74 1014.4
20260906134617 82 0 0.0 0.0 0.00 0.00 0.00 75 1014.1
20260906133106 80 0 0.0 2.0 0.00 0.00 0.00 78 1014.1
20260906131602 78 0 0.0 0.0 0.00 0.00 0.00 81 1014.1
20260906130147 77 0 0.0 0.0 0.00 0.00 0.00 82 1014.0
20260906124609 77 0 0.0 0.0 0.00 0.00 0.00 82 1013.9
20260906123103 76 0 0.0 0.0 0.00 0.00 0.00 83 1013.9
20260906121610 76 0 0.0 0.0 0.00 0.00 0.00 84 1013.6
20260906120110 76 0 0.0 0.0 0.00 0.00 0.00 83 1013.4
20260906114607 76 0 0.0 0.0 0.00 0.00 0.00 83 1013.3
20260906113108 76 0 0.0 0.0 0.00 0.00 0.00 83 1013.3
20260906111602 77 0 0.0 0.0 0.00 0.00 0.00 83 1013.2
20260906110056 77 0 0.0 0.0 0.00 0.00 0.00 82 1013.0
20260906104558 77 0 0.0 0.0 0.00 0.00 0.00 81 1012.9
20260906103105 77 0 0.0 0.0 0.00 0.00 0.00 81 1012.8
20260906101604 77 0 0.0 0.0 0.00 0.00 0.00 80 1012.9
20260906094602 78 0 0.0 0.0 0.00 0.00 0.00 79 1012.4
20260906093059 78 0 0.0 0.0 0.00 0.00 0.00 78 1012.3
20260906091601 78 0 0.0 0.0 0.00 0.00 0.00 78 1012.4
20260906084603 79 0 0.0 0.0 0.00 0.00 0.00 77 1012.2
20260906083104 80 0 0.0 0.0 0.00 0.00 0.00 76 1012.2
20260906081600 80 0 0.0 0.0 0.00 0.00 0.00 76 1012.2
20260906080103 80 0 0.0 0.0 0.00 0.00 0.00 75 1012.5
20260906074559 80 0 0.0 0.0 0.00 0.00 0.00 75 1012.6
20260906073101 81 0 0.0 4.0 0.00 0.00 0.00 74 1012.5
20260906071603 81 0 0.0 3.0 0.00 0.00 0.00 74 1012.5
20260906070103 81 0 0.0 0.0 0.00 0.00 0.00 74 1012.5
20260906064600 81 178 0.0 1.0 0.00 0.00 0.00 74 1012.7
20260906063101 82 0 0.0 0.0 0.00 0.00 0.00 73 1012.8
20260906061623 82 0 0.0 0.0 0.00 0.00 0.00 72 1012.9
20260906060121 82 0 0.0 0.0 0.00 0.00 0.00 71 1013.0
20260906054600 83 0 0.0 0.0 0.00 0.00 0.00 70 1012.9
20260906053102 83 0 0.0 0.0 0.00 0.00 0.00 70 1012.8
20260906051608 83 0 0.0 1.0 0.00 0.00 0.00 70 1013.0
20260906050107 84 0 0.0 3.0 0.00 0.00 0.00 69 1012.9
20260906044600 84 170 0.0 1.0 0.00 0.00 0.00 69 1012.8
20260906043105 84 0 0.0 0.0 0.00 0.00 0.00 69 1012.6
20260906041604 85 0 0.0 0.0 0.00 0.00 0.00 69 1012.6
20260906040101 85 0 0.0 0.0 0.00 0.00 0.00 67 1012.5
20260906034605 86 0 0.0 2.0 0.00 0.00 0.00 67 1012.5
20260906033101 86 0 0.0 4.0 0.00 0.00 0.00 65 1012.8
20260906031603 87 0 0.0 4.0 0.00 0.00 0.00 64 1012.9
20260906030109 87 0 0.0 6.0 0.00 0.00 0.00 63 1012.7
20260906024603 88 0 1.0 7.0 0.00 0.00 0.00 60 1012.5
20260906023110 88 102 0.0 9.0 0.00 0.00 0.00 58 1012.2
20260906021608 89 111 1.0 10.0 0.00 0.00 0.00 56 1012.0
20260906020105 90 81 1.0 10.0 0.00 0.00 0.00 54 1011.8
20260906014607 91 102 2.0 14.0 0.00 0.00 0.00 51 1011.6
20260906013103 93 0 0.0 7.0 0.00 0.00 0.00 49 1011.1
20260906011606 93 0 1.0 7.0 0.00 0.00 0.00 46 1010.9
20260906010108 94 0 0.0 6.0 0.00 0.00 0.00 45 1010.8
20260906004605 95 0 0.0 4.0 0.00 0.00 0.00 42 1010.8
20260906003059 96 96 0.0 3.0 0.00 0.00 0.00 40 1010.7
20260906001605 97 0 0.0 2.0 0.00 0.00 0.00 40 1010.6
20260906000106 97 0 0.0 6.0 0.00 0.00 0.00 39 1010.6
20260905234602 97 0 0.0 7.0 0.00 0.00 0.00 38 1010.6
20260905233116 98 103 1.0 9.0 0.00 0.00 0.00 39 1010.4
20260905231557 98 0 0.0 8.0 0.00 0.00 0.00 38 1010.5
20260905230103 100 0 0.0 6.0 0.00 0.00 0.00 37 1010.4
20260905224604 100 0 0.0 4.0 0.00 0.00 0.00 37 1010.4
20260905223102 100 0 0.0 2.0 0.00 0.00 0.00 35 1010.4
20260905221553 100 96 1.0 7.0 0.00 0.00 0.00 36 1010.5
20260905220105 102 0 0.0 5.0 0.00 0.00 0.00 35 1010.6
20260905214601 102 207 0.0 2.0 0.00 0.00 0.00 35 1010.8
20260905213100 100 209 0.0 5.0 0.00 0.00 0.00 36 1010.9
20260905211613 100 0 0.0 4.0 0.00 0.00 0.00 38 1011.1
20260905210111 99 0 0.0 7.0 0.00 0.00 0.00 38 1011.4
20260905204555 99 211 0.0 6.0 0.00 0.00 0.00 38 1011.5
20260905203106 99 0 1.0 8.0 0.00 0.00 0.00 37 1011.7
20260905201602 98 0 0.0 6.0 0.00 0.00 0.00 39 1011.9
20260905200105 98 0 1.0 7.0 0.00 0.00 0.00 40 1012.2
20260905194557 98 0 0.0 6.0 0.00 0.00 0.00 39 1012.3
20260905193106 98 0 0.0 9.0 0.00 0.00 0.00 40 1012.7
20260905191601 97 0 0.0 6.0 0.00 0.00 0.00 42 1013.0
20260905190104 96 0 0.0 9.0 0.00 0.00 0.00 41 1013.3
20260905184610 96 178 0.0 5.0 0.00 0.00 0.00 42 1013.5
20260905183119 96 200 1.0 6.0 0.00 0.00 0.00 44 1013.7
20260905181606 97 121 0.0 7.0 0.00 0.00 0.00 42 1013.8
20260905180108 96 0 0.0 7.0 0.00 0.00 0.00 44 1014.1
20260905174601 95 0 0.0 6.0 0.00 0.00 0.00 45 1014.3
20260905173106 94 0 0.0 6.0 0.00 0.00 0.00 46 1014.5
20260905171601 94 205 2.0 8.0 0.00 0.00 0.00 45 1014.6
20260905170105 93 0 0.0 6.0 0.00 0.00 0.00 49 1014.8
20260905164602 93 99 2.0 8.0 0.00 0.00 0.00 47 1014.8
20260905163107 93 0 0.0 5.0 0.00 0.00 0.00 50 1014.8
20260905161734 91 0 0.0 3.0 0.00 0.00 0.00 53 1014.8